Time,TemperatureF,DewpointF,PressureIn,WindDirection,WindDirectionDegrees,WindSpeedMPH,WindSpeedGustMPH,Humidity,HourlyPrecipIn,Conditions,Clouds,dailyrainin,SoftwareType,DateUTC
2013-06-28 00:01:00,75.6,67.2,29.77,SSW,203,0.4,2.7,75,0.00,,,0.00,WUHU216HW,2013-06-28 05:01:00,
2013-06-28 00:06:00,75.4,67.0,29.77,South,180,0.4,2.7,75,0.00,,,0.00,WUHU216HW,2013-06-28 05:06:00,
2013-06-28 00:11:00,75.1,67.0,29.77,SSE,158,1.6,1.6,76,0.00,,,0.00,WUHU216HW,2013-06-28 05:11:00,
2013-06-28 00:16:00,74.9,67.2,29.77,WNW,293,1.8,1.8,77,0.00,,,0.00,WUHU216HW,2013-06-28 05:16:00,
2013-06-28 00:21:00,74.9,67.2,29.77,SW,225,0.4,1.8,77,0.00,,,0.00,WUHU216HW,2013-06-28 05:21:00,
2013-06-28 00:26:00,74.7,67.1,29.77,SE,135,1.1,1.8,77,0.00,,,0.00,WUHU216HW,2013-06-28 05:26:00,
2013-06-28 00:31:00,74.5,66.9,29.76,South,180,1.3,1.8,77,0.00,,,0.00,WUHU216HW,2013-06-28 05:31:00,
2013-06-28 00:36:00,74.3,66.7,29.77,WSW,248,0.4,2.5,77,0.00,,,0.00,WUHU216HW,2013-06-28 05:36:00,
2013-06-28 00:41:00,74.3,66.7,29.77,West,270,0.7,2.5,77,0.00,,,0.00,WUHU216HW,2013-06-28 05:41:00,
2013-06-28 00:46:00,74.2,66.9,29.76,NW,321,0.8,1.8,78,0.00,,,0.00,WUHU216HW,2013-06-28 05:46:00,
2013-06-28 00:51:00,74.2,66.9,29.76,West,270,2.5,2.5,78,0.00,,,0.00,WUHU216HW,2013-06-28 05:51:00,
2013-06-28 00:56:00,74.2,66.9,29.76,South,180,0.9,2.9,78,0.00,,,0.00,WUHU216HW,2013-06-28 05:56:00,
2013-06-28 01:01:00,74.0,66.7,29.76,SW,225,2.2,2.9,78,0.00,,,0.00,WUHU216HW,2013-06-28 06:01:00,
2013-06-28 01:06:00,74.0,66.7,29.76,WNW,293,1.1,2.2,78,0.00,,,0.00,WUHU216HW,2013-06-28 06:06:00,
2013-06-28 01:11:00,73.8,66.6,29.76,NNW,338,1.8,2.2,78,0.00,,,0.00,WUHU216HW,2013-06-28 06:11:00,
2013-06-28 01:16:00,73.8,67.0,29.76,WNW,297,0.4,1.8,79,0.00,,,0.00,WUHU216HW,2013-06-28 06:16:00,
2013-06-28 01:21:00,73.8,67.0,29.75,NE,38,1.0,1.8,79,0.00,,,0.00,WUHU216HW,2013-06-28 06:21:00,
2013-06-28 01:26:00,73.8,67.0,29.75,ESE,113,0.4,1.1,79,0.00,,,0.00,WUHU216HW,2013-06-28 06:26:00,
2013-06-28 01:31:00,73.8,67.0,29.75,WNW,293,1.8,2.2,79,0.00,,,0.00,WUHU216HW,2013-06-28 06:31:00,
2013-06-28 01:36:00,73.8,67.0,29.75,WNW,293,1.1,2.2,79,0.00,,,0.00,WUHU216HW,2013-06-28 06:36:00,
2013-06-28 01:41:00,73.8,67.0,29.74,West,270,2.5,2.5,79,0.00,,,0.00,WUHU216HW,2013-06-28 06:41:00,
2013-06-28 01:46:00,73.8,67.0,29.74,ENE,68,1.3,2.7,79,0.00,,,0.00,WUHU216HW,2013-06-28 06:46:00,
2013-06-28 01:51:00,73.6,66.8,29.74,WSW,248,0.9,2.7,79,0.00,,,0.00,WUHU216HW,2013-06-28 06:51:00,
2013-06-28 01:56:00,73.6,66.8,29.74,SSW,201,1.3,1.8,79,0.00,,,0.00,WUHU216HW,2013-06-28 06:56:00,
2013-06-28 02:01:00,73.4,66.6,29.74,NNE,14,1.0,2.7,79,0.00,,,0.00,WUHU216HW,2013-06-28 07:01:00,
2013-06-28 02:06:00,73.3,66.8,29.73,NNW,338,1.6,2.7,80,0.00,,,0.00,WUHU216HW,2013-06-28 07:06:00,
2013-06-28 02:11:00,73.3,66.8,29.73,North,351,1.3,1.8,80,0.00,,,0.00,WUHU216HW,2013-06-28 07:11:00,
2013-06-28 02:16:00,73.1,66.6,29.73,NNW,338,1.1,2.5,80,0.00,,,0.00,WUHU216HW,2013-06-28 07:16:00,
2013-06-28 02:21:00,73.1,66.6,29.73,NW,315,0.9,2.5,80,0.00,,,0.00,WUHU216HW,2013-06-28 07:21:00,
2013-06-28 02:26:00,73.1,66.6,29.73,West,270,0.7,2.5,80,0.00,,,0.00,WUHU216HW,2013-06-28 07:26:00,
2013-06-28 02:31:00,72.9,66.4,29.73,WNW,301,1.0,1.8,80,0.00,,,0.00,WUHU216HW,2013-06-28 07:31:00,
2013-06-28 02:36:00,72.9,66.1,29.73,SW,225,4.3,4.3,79,0.00,,,0.00,WUHU216HW,2013-06-28 07:36:00,
2013-06-28 02:41:00,72.9,66.1,29.73,SSE,158,3.4,4.3,79,0.00,,,0.00,WUHU216HW,2013-06-28 07:41:00,
2013-06-28 02:46:00,72.9,66.1,29.73,South,180,0.4,4.3,79,0.00,,,0.00,WUHU216HW,2013-06-28 07:46:00,
2013-06-28 02:51:00,72.7,65.9,29.73,South,180,0.9,3.4,79,0.00,,,0.00,WUHU216HW,2013-06-28 07:51:00,
2013-06-28 02:56:00,72.5,65.7,29.73,ESE,113,1.1,1.3,79,0.00,,,0.00,WUHU216HW,2013-06-28 07:56:00,
2013-06-28 03:01:00,72.4,65.2,29.73,West,270,0.9,1.3,78,0.00,,,0.00,WUHU216HW,2013-06-28 08:01:00,
2013-06-28 03:06:00,72.2,65.4,29.73,SSE,158,0.4,1.1,79,0.00,,,0.00,WUHU216HW,2013-06-28 08:06:00,
2013-06-28 03:11:00,72.0,65.2,29.73,SSW,203,0.2,0.7,79,0.00,,,0.00,WUHU216HW,2013-06-28 08:11:00,
2013-06-28 03:16:00,71.8,65.3,29.73,WNW,293,0.4,0.7,80,0.00,,,0.00,WUHU216HW,2013-06-28 08:16:00,
2013-06-28 03:21:00,71.6,65.2,29.73,WSW,248,1.3,1.3,80,0.00,,,0.00,WUHU216HW,2013-06-28 08:21:00,
2013-06-28 03:26:00,71.6,65.2,29.73,SSW,203,0.4,1.3,80,0.00,,,0.00,WUHU216HW,2013-06-28 08:26:00,
2013-06-28 03:31:00,71.6,65.2,29.73,WSW,248,1.1,1.8,80,0.00,,,0.00,WUHU216HW,2013-06-28 08:31:00,
2013-06-28 03:36:00,71.3,64.8,29.73,South,180,1.9,2.5,80,0.00,,,0.00,WUHU216HW,2013-06-28 08:36:00,
2013-06-28 03:41:00,71.3,64.8,29.73,South,180,1.1,2.5,80,0.00,,,0.00,WUHU216HW,2013-06-28 08:41:00,
2013-06-28 03:46:00,70.9,64.4,29.72,SSE,158,2.5,2.5,80,0.00,,,0.00,WUHU216HW,2013-06-28 08:46:00,
2013-06-28 03:51:00,70.9,64.4,29.73,South,180,2.7,2.7,80,0.00,,,0.00,WUHU216HW,2013-06-28 08:51:00,
2013-06-28 03:56:00,70.7,64.6,29.72,SSW,203,1.8,2.7,81,0.00,,,0.00,WUHU216HW,2013-06-28 08:56:00,
2013-06-28 04:01:00,70.4,64.3,29.72,South,169,1.6,2.7,81,0.00,,,0.00,WUHU216HW,2013-06-28 09:01:00,
2013-06-28 04:06:00,70.2,64.5,29.72,SSW,203,1.1,2.5,82,0.00,,,0.00,WUHU216HW,2013-06-28 09:06:00,
2013-06-28 04:11:00,70.2,64.5,29.72,SSE,158,0.9,1.8,82,0.00,,,0.00,WUHU216HW,2013-06-28 09:11:00,
2013-06-28 04:16:00,69.8,64.1,29.72,East,90,0.0,1.8,82,0.00,,,0.00,WUHU216HW,2013-06-28 09:16:00,
2013-06-28 04:21:00,69.8,64.1,29.72,SSW,203,1.6,1.6,82,0.00,,,0.00,WUHU216HW,2013-06-28 09:21:00,
2013-06-28 04:26:00,69.7,64.3,29.72,SSE,158,0.4,1.6,83,0.00,,,0.00,WUHU216HW,2013-06-28 09:26:00,
2013-06-28 04:31:00,69.5,64.1,29.72,SSW,203,0.2,1.3,83,0.00,,,0.00,WUHU216HW,2013-06-28 09:31:00,
2013-06-28 04:36:00,69.5,64.1,29.72,South,173,0.6,1.3,83,0.00,,,0.00,WUHU216HW,2013-06-28 09:36:00,
2013-06-28 04:41:00,69.3,64.3,29.72,South,180,1.6,1.6,84,0.00,,,0.00,WUHU216HW,2013-06-28 09:41:00,
2013-06-28 04:46:00,69.3,64.3,29.72,West,270,1.8,1.8,84,0.00,,,0.00,WUHU216HW,2013-06-28 09:46:00,
2013-06-28 04:51:00,69.5,64.4,29.72,West,270,1.6,1.8,84,0.00,,,0.00,WUHU216HW,2013-06-28 09:51:00,
2013-06-28 04:56:00,69.5,64.4,29.72,North,0,2.0,2.0,84,0.00,,,0.00,WUHU216HW,2013-06-28 09:56:00,
2013-06-28 05:01:00,69.7,64.5,29.71,West,270,2.2,2.2,84,0.00,,,0.00,WUHU216HW,2013-06-28 10:01:00,
2013-06-28 05:06:00,69.7,64.5,29.72,WNW,286,0.8,2.2,84,0.00,,,0.00,WUHU216HW,2013-06-28 10:06:00,
2013-06-28 05:11:00,69.8,64.4,29.72,West,270,2.2,2.2,83,0.00,,,0.00,WUHU216HW,2013-06-28 10:11:00,
2013-06-28 05:16:00,69.8,64.4,29.72,SSE,158,0.4,2.2,83,0.00,,,0.00,WUHU216HW,2013-06-28 10:16:00,
2013-06-28 05:21:00,69.8,64.4,29.72,SSE,158,0.7,2.2,83,0.00,,,0.00,WUHU216HW,2013-06-28 10:21:00,
2013-06-28 05:26:00,69.8,64.4,29.72,NW,315,0.9,0.9,83,0.00,,,0.00,WUHU216HW,2013-06-28 10:26:00,
2013-06-28 05:31:00,69.8,64.4,29.72,WNW,293,0.9,0.9,83,0.00,,,0.00,WUHU216HW,2013-06-28 10:31:00,
2013-06-28 05:36:00,69.8,64.4,29.72,NW,315,0.4,0.9,83,0.00,,,0.00,WUHU216HW,2013-06-28 10:36:00,
2013-06-28 05:41:00,69.7,64.3,29.73,WSW,257,1.1,1.8,83,0.00,,,0.00,WUHU216HW,2013-06-28 10:41:00,
2013-06-28 05:46:00,69.7,64.3,29.73,WSW,248,0.7,1.8,83,0.00,,,0.00,WUHU216HW,2013-06-28 10:46:00,
2013-06-28 05:51:00,69.5,64.1,29.73,West,270,0.4,1.1,83,0.00,,,0.00,WUHU216HW,2013-06-28 10:51:00,
2013-06-28 05:56:00,69.7,64.3,29.73,ESE,123,0.6,1.6,83,0.00,,,0.00,WUHU216HW,2013-06-28 10:56:00,
2013-06-28 06:01:00,69.5,64.1,29.74,NW,315,1.1,1.6,83,0.00,,,0.00,WUHU216HW,2013-06-28 11:01:00,
2013-06-28 06:06:00,69.7,63.9,29.74,South,180,1.1,1.1,82,0.00,,,0.00,WUHU216HW,2013-06-28 11:06:00,
2013-06-28 06:11:00,69.7,63.9,29.74,West,270,0.2,1.1,82,0.00,,,0.00,WUHU216HW,2013-06-28 11:11:00,
2013-06-28 06:16:00,69.5,63.7,29.74,South,173,1.3,1.8,82,0.00,,,0.00,WUHU216HW,2013-06-28 11:16:00,
2013-06-28 06:21:00,69.5,64.1,29.73,SSW,203,0.7,1.8,83,0.00,,,0.00,WUHU216HW,2013-06-28 11:21:00,
2013-06-28 06:26:00,69.7,64.3,29.74,WNW,293,0.2,0.9,83,0.00,,,0.00,WUHU216HW,2013-06-28 11:26:00,
2013-06-28 06:31:00,69.7,64.3,29.73,WNW,293,0.4,0.4,83,0.00,,,0.00,WUHU216HW,2013-06-28 11:31:00,
2013-06-28 06:36:00,69.8,64.4,29.74,NW,315,0.9,0.9,83,0.00,,,0.00,WUHU216HW,2013-06-28 11:36:00,
2013-06-28 06:41:00,70.0,64.5,29.74,SSW,203,1.8,1.8,83,0.00,,,0.00,WUHU216HW,2013-06-28 11:41:00,
2013-06-28 06:46:00,70.2,64.5,29.73,SSE,158,1.6,1.8,82,0.00,,,0.00,WUHU216HW,2013-06-28 11:46:00,
2013-06-28 06:51:00,70.4,64.6,29.74,SE,143,1.0,1.6,82,0.00,,,0.00,WUHU216HW,2013-06-28 11:51:00,
2013-06-28 06:56:00,70.6,64.8,29.74,WNW,301,2.0,2.5,82,0.00,,,0.00,WUHU216HW,2013-06-28 11:56:00,
2013-06-28 07:01:00,70.9,65.2,29.74,South,180,0.3,2.5,82,0.00,,,0.00,WUHU216HW,2013-06-28 12:01:00,
2013-06-28 07:06:00,71.3,65.2,29.74,WNW,286,0.6,1.3,81,0.00,,,0.00,WUHU216HW,2013-06-28 12:06:00,
2013-06-28 07:11:00,71.5,65.4,29.73,NW,315,1.1,1.1,81,0.00,,,0.00,WUHU216HW,2013-06-28 12:11:00,
2013-06-28 07:16:00,71.8,65.3,29.73,North,0,0.4,1.1,80,0.00,,,0.00,WUHU216HW,2013-06-28 12:16:00,
2013-06-28 07:21:00,72.2,65.7,29.73,West,270,2.0,2.0,80,0.00,,,0.00,WUHU216HW,2013-06-28 12:21:00,
2013-06-28 07:26:00,72.4,65.9,29.73,NNW,338,0.4,2.0,80,0.00,,,0.00,WUHU216HW,2013-06-28 12:26:00,
2013-06-28 07:31:00,72.7,66.6,29.73,South,180,1.1,1.1,81,0.00,,,0.00,WUHU216HW,2013-06-28 12:31:00,
2013-06-28 07:36:00,73.1,66.6,29.73,West,270,1.6,1.6,80,0.00,,,0.00,WUHU216HW,2013-06-28 12:36:00,
2013-06-28 07:41:00,73.3,66.4,29.73,WNW,293,0.9,2.5,79,0.00,,,0.00,WUHU216HW,2013-06-28 12:41:00,
2013-06-28 07:46:00,73.4,66.6,29.73,WNW,293,1.5,2.5,79,0.00,,,0.00,WUHU216HW,2013-06-28 12:46:00,
2013-06-28 07:51:00,73.8,67.0,29.73,ENE,68,0.9,2.5,79,0.00,,,0.00,WUHU216HW,2013-06-28 12:51:00,
2013-06-28 07:56:00,74.0,66.7,29.73,NW,315,0.4,1.8,78,0.00,,,0.00,WUHU216HW,2013-06-28 12:56:00,
2013-06-28 08:01:00,74.3,66.7,29.73,West,265,0.7,1.8,77,0.00,,,0.00,WUHU216HW,2013-06-28 13:01:00,
2013-06-28 08:06:00,74.5,66.5,29.73,West,270,0.9,1.1,76,0.00,,,0.00,WUHU216HW,2013-06-28 13:06:00,
2013-06-28 08:11:00,74.7,66.7,29.73,NNW,338,1.1,1.8,76,0.00,,,0.00,WUHU216HW,2013-06-28 13:11:00,
2013-06-28 08:16:00,74.9,66.9,29.73,North,0,0.0,1.8,76,0.00,,,0.00,WUHU216HW,2013-06-28 13:16:00,
2013-06-28 08:21:00,75.2,66.8,29.73,NW,315,1.1,2.0,75,0.00,,,0.00,WUHU216HW,2013-06-28 13:21:00,
2013-06-28 08:26:00,75.4,67.0,29.73,South,180,1.1,2.5,75,0.00,,,0.00,WUHU216HW,2013-06-28 13:26:00,
2013-06-28 08:31:00,76.0,67.1,29.73,SSE,158,0.9,2.5,74,0.00,,,0.00,WUHU216HW,2013-06-28 13:31:00,
2013-06-28 08:36:00,76.1,66.9,29.73,North,0,0.7,2.0,73,0.00,,,0.00,WUHU216HW,2013-06-28 13:36:00,
2013-06-28 08:41:00,76.3,66.7,29.73,North,349,2.3,3.4,72,0.00,,,0.00,WUHU216HW,2013-06-28 13:41:00,
2013-06-28 08:46:00,76.7,66.6,29.73,North,0,1.8,3.4,71,0.00,,,0.00,WUHU216HW,2013-06-28 13:46:00,
2013-06-28 08:51:00,76.7,66.2,29.73,ESE,113,1.3,2.7,70,0.00,,,0.00,WUHU216HW,2013-06-28 13:51:00,
2013-06-28 08:56:00,77.0,66.2,29.73,NNW,338,1.3,2.7,69,0.00,,,0.00,WUHU216HW,2013-06-28 13:56:00,
2013-06-28 09:01:00,77.4,67.3,29.73,NW,320,2.4,3.1,71,0.00,,,0.00,WUHU216HW,2013-06-28 14:01:00,
2013-06-28 09:06:00,77.6,65.8,29.73,ESE,113,2.5,3.1,67,0.00,,,0.00,WUHU216HW,2013-06-28 14:06:00,
2013-06-28 09:11:00,77.8,66.3,29.73,NNE,23,2.2,2.5,68,0.00,,,0.00,WUHU216HW,2013-06-28 14:11:00,
2013-06-28 09:16:00,78.1,66.2,29.73,West,265,1.6,2.9,67,0.00,,,0.00,WUHU216HW,2013-06-28 14:16:00,
2013-06-28 09:21:00,78.3,66.4,29.73,North,0,1.1,2.9,67,0.00,,,0.00,WUHU216HW,2013-06-28 14:21:00,
2013-06-28 09:26:00,78.7,66.8,29.73,South,180,1.8,1.8,67,0.00,,,0.00,WUHU216HW,2013-06-28 14:26:00,
2013-06-28 09:31:00,79.0,66.7,29.73,SE,135,2.5,3.8,66,0.00,,,0.00,WUHU216HW,2013-06-28 14:31:00,
2013-06-28 09:36:00,79.4,67.4,29.73,NW,315,1.6,3.8,67,0.00,,,0.00,WUHU216HW,2013-06-28 14:36:00,
2013-06-28 09:41:00,79.7,67.8,29.73,ESE,122,1.4,2.5,67,0.00,,,0.00,WUHU216HW,2013-06-28 14:41:00,
2013-06-28 09:46:00,79.9,67.5,29.73,West,270,2.5,2.5,66,0.00,,,0.00,WUHU216HW,2013-06-28 14:46:00,
2013-06-28 09:51:00,80.1,67.2,29.72,ENE,68,2.7,2.7,65,0.00,,,0.00,WUHU216HW,2013-06-28 14:51:00,
2013-06-28 09:56:00,80.3,67.9,29.72,NNW,332,1.7,2.7,66,0.00,,,0.00,WUHU216HW,2013-06-28 14:56:00,
2013-06-28 10:01:00,80.6,68.2,29.72,WNW,282,1.8,2.5,66,0.00,,,0.00,WUHU216HW,2013-06-28 15:01:00,
2013-06-28 10:06:00,80.5,68.0,29.72,NW,310,2.2,4.3,66,0.00,,,0.00,WUHU216HW,2013-06-28 15:06:00,
2013-06-28 10:11:00,80.6,67.8,29.72,North,0,2.2,5.4,65,0.00,,,0.00,WUHU216HW,2013-06-28 15:11:00,
2013-06-28 10:16:00,80.8,68.0,29.72,North,0,2.2,5.4,65,0.00,,,0.00,WUHU216HW,2013-06-28 15:16:00,
2013-06-28 10:21:00,80.8,68.0,29.72,NW,315,0.9,2.2,65,0.00,,,0.00,WUHU216HW,2013-06-28 15:21:00,
2013-06-28 10:26:00,81.0,66.8,29.71,SE,135,1.8,2.2,62,0.00,,,0.00,WUHU216HW,2013-06-28 15:26:00,
2013-06-28 10:31:00,81.0,65.9,29.71,SW,236,1.2,2.5,60,0.00,,,0.00,WUHU216HW,2013-06-28 15:31:00,
2013-06-28 10:36:00,81.0,66.3,29.71,WSW,248,3.8,3.8,61,0.00,,,0.00,WUHU216HW,2013-06-28 15:36:00,
2013-06-28 10:41:00,80.8,66.6,29.71,NNW,332,1.7,3.8,62,0.00,,,0.00,WUHU216HW,2013-06-28 15:41:00,
2013-06-28 10:46:00,81.2,66.4,29.71,North,0,1.8,2.9,61,0.00,,,0.00,WUHU216HW,2013-06-28 15:46:00,
2013-06-28 10:51:00,81.4,67.1,29.71,NNW,338,0.9,2.9,62,0.00,,,0.00,WUHU216HW,2013-06-28 15:51:00,
2013-06-28 10:56:00,81.7,67.0,29.71,NE,45,2.2,2.5,61,0.00,,,0.00,WUHU216HW,2013-06-28 15:56:00,
2013-06-28 11:01:00,82.1,65.8,29.71,WNW,293,1.3,2.5,58,0.00,,,0.00,WUHU216HW,2013-06-28 16:01:00,
2013-06-28 11:06:00,82.1,65.3,29.71,NW,318,2.7,3.1,57,0.00,,,0.00,WUHU216HW,2013-06-28 16:06:00,
2013-06-28 11:11:00,82.3,65.4,29.71,WSW,248,2.0,3.1,57,0.00,,,0.00,WUHU216HW,2013-06-28 16:11:00,
2013-06-28 11:16:00,82.4,67.1,29.71,NNW,338,1.8,2.2,60,0.00,,,0.00,WUHU216HW,2013-06-28 16:16:00,
2013-06-28 11:21:00,82.6,66.8,29.71,North,0,1.6,1.8,59,0.00,,,0.00,WUHU216HW,2013-06-28 16:21:00,
2013-06-28 11:26:00,83.0,65.6,29.71,SSE,158,4.5,4.5,56,0.00,,,0.00,WUHU216HW,2013-06-28 16:26:00,
2013-06-28 11:31:00,83.2,67.3,29.70,West,270,2.7,4.5,59,0.00,,,0.00,WUHU216HW,2013-06-28 16:31:00,
2013-06-28 11:36:00,83.2,65.3,29.70,NW,319,2.7,4.0,55,0.00,,,0.00,WUHU216HW,2013-06-28 16:36:00,
2013-06-28 11:41:00,83.2,65.3,29.70,NNW,332,2.2,4.0,55,0.00,,,0.00,WUHU216HW,2013-06-28 16:41:00,
2013-06-28 11:46:00,83.0,66.6,29.70,North,0,1.1,2.7,58,0.00,,,0.00,WUHU216HW,2013-06-28 16:46:00,
2013-06-28 11:51:00,83.3,66.5,29.70,North,0,1.8,3.4,57,0.00,,,0.00,WUHU216HW,2013-06-28 16:51:00,
2013-06-28 11:56:00,83.3,65.4,29.70,WSW,248,1.6,3.4,55,0.00,,,0.00,WUHU216HW,2013-06-28 16:56:00,
2013-06-28 12:01:00,83.5,66.7,29.70,WNW,284,4.7,5.4,57,0.00,,,0.00,WUHU216HW,2013-06-28 17:01:00,
2013-06-28 12:06:00,83.3,66.0,29.70,NW,325,2.0,5.4,56,0.00,,,0.00,WUHU216HW,2013-06-28 17:06:00,
2013-06-28 12:11:00,83.5,65.6,29.70,NNW,336,1.8,2.7,55,0.00,,,0.00,WUHU216HW,2013-06-28 17:11:00,
2013-06-28 12:16:00,83.7,65.8,29.70,NNW,338,2.5,2.5,55,0.00,,,0.00,WUHU216HW,2013-06-28 17:16:00,
2013-06-28 12:21:00,83.7,65.3,29.70,WNW,293,3.4,3.4,54,0.00,,,0.00,WUHU216HW,2013-06-28 17:21:00,
2013-06-28 12:26:00,83.9,67.5,29.70,WSW,244,2.7,4.3,58,0.00,,,0.00,WUHU216HW,2013-06-28 17:26:00,
2013-06-28 12:31:00,83.9,66.5,29.70,NW,315,2.2,4.3,56,0.00,,,0.00,WUHU216HW,2013-06-28 17:31:00,
2013-06-28 12:36:00,84.1,66.2,29.69,NNW,328,2.2,2.9,55,0.00,,,0.00,WUHU216HW,2013-06-28 17:36:00,
2013-06-28 12:41:00,84.1,65.6,29.69,NNE,23,1.8,3.4,54,0.00,,,0.00,WUHU216HW,2013-06-28 17:41:00,
2013-06-28 12:46:00,83.9,63.4,29.69,SE,135,4.0,4.0,50,0.00,,,0.00,WUHU216HW,2013-06-28 17:46:00,
2013-06-28 12:51:00,83.9,61.5,29.70,North,0,2.8,4.0,47,0.00,,,0.00,WUHU216HW,2013-06-28 17:51:00,
2013-06-28 12:56:00,83.9,60.2,29.69,NW,315,4.0,4.0,45,0.00,,,0.00,WUHU216HW,2013-06-28 17:56:00,
2013-06-28 13:01:00,83.9,61.5,29.69,NNW,345,3.4,4.3,47,0.00,,,0.00,WUHU216HW,2013-06-28 18:01:00,
2013-06-28 13:06:00,84.2,61.8,29.69,NW,315,3.4,4.3,47,0.00,,,0.00,WUHU216HW,2013-06-28 18:06:00,
2013-06-28 13:11:00,84.2,60.6,29.69,NNW,343,2.3,5.4,45,0.00,,,0.00,WUHU216HW,2013-06-28 18:11:00,
2013-06-28 13:16:00,84.2,60.6,29.69,NNW,338,2.5,5.4,45,0.00,,,0.00,WUHU216HW,2013-06-28 18:16:00,
2013-06-28 13:21:00,84.4,60.1,29.69,NW,315,3.4,5.4,44,0.00,,,0.00,WUHU216HW,2013-06-28 18:21:00,
2013-06-28 13:26:00,84.4,60.8,29.69,NW,326,2.1,5.1,45,0.00,,,0.00,WUHU216HW,2013-06-28 18:26:00,
2013-06-28 13:31:00,84.2,59.9,29.69,NNW,345,2.0,5.6,44,0.00,,,0.00,WUHU216HW,2013-06-28 18:31:00,
2013-06-28 13:36:00,84.4,61.4,29.68,West,270,3.8,5.6,46,0.00,,,0.00,WUHU216HW,2013-06-28 18:36:00,
2013-06-28 13:41:00,84.4,62.0,29.68,North,0,2.9,4.0,47,0.00,,,0.00,WUHU216HW,2013-06-28 18:41:00,
2013-06-28 13:46:00,84.6,60.9,29.68,NW,315,4.0,4.0,45,0.00,,,0.00,WUHU216HW,2013-06-28 18:46:00,
2013-06-28 13:51:00,84.6,60.3,29.68,West,275,2.9,6.9,44,0.00,,,0.00,WUHU216HW,2013-06-28 18:51:00,
2013-06-28 13:56:00,84.6,62.2,29.68,North,0,4.0,6.9,47,0.00,,,0.00,WUHU216HW,2013-06-28 18:56:00,
2013-06-28 14:01:00,84.6,61.6,29.68,SW,225,2.2,4.0,46,0.00,,,0.00,WUHU216HW,2013-06-28 19:01:00,
2013-06-28 14:06:00,84.6,61.6,29.68,North,10,3.7,4.0,46,0.00,,,0.00,WUHU216HW,2013-06-28 19:06:00,
2013-06-28 14:11:00,84.4,60.8,29.68,NNW,328,3.3,4.9,45,0.00,,,0.00,WUHU216HW,2013-06-28 19:11:00,
2013-06-28 14:16:00,84.6,60.9,29.68,ENE,68,4.0,4.9,45,0.00,,,0.00,WUHU216HW,2013-06-28 19:16:00,
2013-06-28 14:21:00,84.6,62.2,29.68,NNW,343,3.2,4.3,47,0.00,,,0.00,WUHU216HW,2013-06-28 19:21:00,
2013-06-28 14:26:00,84.6,62.2,29.67,North,11,2.1,5.6,47,0.00,,,0.00,WUHU216HW,2013-06-28 19:26:00,
2013-06-28 14:31:00,84.4,61.4,29.67,North,0,3.6,5.6,46,0.00,,,0.00,WUHU216HW,2013-06-28 19:31:00,
2013-06-28 14:36:00,84.6,63.5,29.67,WNW,300,2.0,3.6,49,0.00,,,0.00,WUHU216HW,2013-06-28 19:36:00,
2013-06-28 14:41:00,84.6,60.9,29.67,North,0,2.5,2.9,45,0.00,,,0.00,WUHU216HW,2013-06-28 19:41:00,
2013-06-28 14:46:00,85.0,63.7,29.67,North,0,2.9,4.0,49,0.00,,,0.00,WUHU216HW,2013-06-28 19:46:00,
2013-06-28 14:51:00,85.3,62.2,29.67,North,1,3.9,4.0,46,0.00,,,0.00,WUHU216HW,2013-06-28 19:51:00,
2013-06-28 14:56:00,85.0,61.8,29.66,NNW,338,2.7,4.7,46,0.00,,,0.00,WUHU216HW,2013-06-28 19:56:00,
2013-06-28 15:01:00,84.6,62.2,29.66,NNW,338,2.0,4.7,47,0.00,,,0.00,WUHU216HW,2013-06-28 20:01:00,
2013-06-28 15:06:00,84.2,63.1,29.66,WNW,293,3.1,3.4,49,0.00,,,0.00,WUHU216HW,2013-06-28 20:06:00,
2013-06-28 15:11:00,84.6,63.5,29.66,NNW,338,4.0,4.0,49,0.00,,,0.00,WUHU216HW,2013-06-28 20:11:00,
2013-06-28 15:16:00,85.0,63.7,29.66,ENE,77,1.5,4.0,49,0.00,,,0.00,WUHU216HW,2013-06-28 20:16:00,
2013-06-28 15:21:00,85.0,63.7,29.66,NNW,338,3.1,3.4,49,0.00,,,0.00,WUHU216HW,2013-06-28 20:21:00,
2013-06-28 15:26:00,85.1,63.3,29.66,NW,305,3.2,3.6,48,0.00,,,0.00,WUHU216HW,2013-06-28 20:26:00,
2013-06-28 15:31:00,85.3,63.5,29.66,North,0,3.1,6.3,48,0.00,,,0.00,WUHU216HW,2013-06-28 20:31:00,
2013-06-28 15:36:00,85.1,63.9,29.66,NNW,344,1.8,6.3,49,0.00,,,0.00,WUHU216HW,2013-06-28 20:36:00,
2013-06-28 15:41:00,85.0,63.7,29.66,NNW,336,3.8,5.8,49,0.00,,,0.00,WUHU216HW,2013-06-28 20:41:00,
2013-06-28 15:46:00,85.0,61.8,29.66,North,0,3.1,5.8,46,0.00,,,0.00,WUHU216HW,2013-06-28 20:46:00,
2013-06-28 15:51:00,84.6,62.2,29.66,NW,323,2.9,4.5,47,0.00,,,0.00,WUHU216HW,2013-06-28 20:51:00,
2013-06-28 15:56:00,84.1,62.9,29.65,East,90,2.5,4.5,49,0.00,,,0.00,WUHU216HW,2013-06-28 20:56:00,
2013-06-28 16:01:00,84.1,62.9,29.65,NNW,338,1.1,3.4,49,0.00,,,0.00,WUHU216HW,2013-06-28 21:01:00,
2013-06-28 16:06:00,84.4,62.7,29.66,North,354,2.3,3.6,48,0.00,,,0.00,WUHU216HW,2013-06-28 21:06:00,
2013-06-28 16:12:00,84.1,61.7,29.66,NW,315,2.5,4.5,47,0.00,,,0.00,WUHU216HW,2013-06-28 21:12:00,
2013-06-28 16:16:00,84.1,61.0,29.65,NNW,338,5.4,5.4,46,0.00,,,0.00,WUHU216HW,2013-06-28 21:16:00,
2013-06-28 16:21:00,84.1,61.7,29.65,WNW,293,4.0,5.4,47,0.00,,,0.00,WUHU216HW,2013-06-28 21:21:00,
2013-06-28 16:27:00,84.4,61.4,29.65,North,0,3.8,4.3,46,0.00,,,0.00,WUHU216HW,2013-06-28 21:27:00,
2013-06-28 16:31:00,84.6,61.6,29.65,West,270,3.4,4.3,46,0.00,,,0.00,WUHU216HW,2013-06-28 21:31:00,
2013-06-28 16:37:00,84.8,59.1,29.65,North,0,5.8,5.8,42,0.00,,,0.00,WUHU216HW,2013-06-28 21:37:00,
2013-06-28 16:42:00,84.8,60.4,29.65,North,0,1.6,5.8,44,0.00,,,0.00,WUHU216HW,2013-06-28 21:42:00,
2013-06-28 16:46:00,84.6,59.7,29.65,North,350,4.1,6.3,43,0.00,,,0.00,WUHU216HW,2013-06-28 21:46:00,
2013-06-28 16:52:00,84.4,60.1,29.65,North,0,1.6,6.3,44,0.00,,,0.00,WUHU216HW,2013-06-28 21:52:00,
2013-06-28 16:57:00,84.4,59.5,29.65,NE,35,3.3,3.8,43,0.00,,,0.00,WUHU216HW,2013-06-28 21:57:00,
2013-06-28 17:02:00,84.2,59.9,29.65,North,0,3.4,3.6,44,0.00,,,0.00,WUHU216HW,2013-06-28 22:02:00,
2013-06-28 17:07:00,84.2,59.9,29.66,North,0,3.1,3.4,44,0.00,,,0.00,WUHU216HW,2013-06-28 22:07:00,
2013-06-28 17:12:00,84.2,60.6,29.65,SE,135,5.1,5.1,45,0.00,,,0.00,WUHU216HW,2013-06-28 22:12:00,
2013-06-28 17:16:00,84.8,61.7,29.65,WSW,240,1.5,5.1,46,0.00,,,0.00,WUHU216HW,2013-06-28 22:16:00,
2013-06-28 17:21:00,85.1,63.3,29.65,West,270,1.8,5.1,48,0.00,,,0.00,WUHU216HW,2013-06-28 22:21:00,
2013-06-28 17:26:00,85.5,61.1,29.65,SSE,158,2.9,3.1,44,0.00,,,0.00,WUHU216HW,2013-06-28 22:26:00,
2013-06-28 17:32:00,84.4,60.1,29.65,NNW,338,1.6,3.4,44,0.00,,,0.00,WUHU216HW,2013-06-28 22:32:00,
2013-06-28 17:37:00,83.5,59.9,29.64,WSW,248,2.7,3.4,45,0.00,,,0.00,WUHU216HW,2013-06-28 22:37:00,
2013-06-28 17:42:00,83.2,60.8,29.64,NW,315,0.4,2.7,47,0.00,,,0.00,WUHU216HW,2013-06-28 22:42:00,
2013-06-28 17:47:00,82.8,61.0,29.64,SW,218,0.8,2.0,48,0.00,,,0.00,WUHU216HW,2013-06-28 22:47:00,
2013-06-28 17:52:00,83.0,62.5,29.64,WNW,293,1.1,2.0,50,0.00,,,0.00,WUHU216HW,2013-06-28 22:52:00,
2013-06-28 17:57:00,83.3,62.2,29.64,WNW,293,1.3,1.6,49,0.00,,,0.00,WUHU216HW,2013-06-28 22:57:00,
2013-06-28 18:02:00,83.3,62.2,29.64,WNW,286,0.8,1.3,49,0.00,,,0.00,WUHU216HW,2013-06-28 23:02:00,
2013-06-28 18:07:00,83.2,62.0,29.64,NNW,333,1.0,1.8,49,0.00,,,0.00,WUHU216HW,2013-06-28 23:07:00,
2013-06-28 18:12:00,82.8,60.4,29.64,NW,305,2.7,5.1,47,0.00,,,0.00,WUHU216HW,2013-06-28 23:12:00,
2013-06-28 18:17:00,82.4,60.7,29.64,SSW,203,2.0,5.1,48,0.00,,,0.00,WUHU216HW,2013-06-28 23:17:00,
2013-06-28 18:22:00,82.1,60.4,29.63,NE,45,2.0,2.7,48,0.00,,,0.00,WUHU216HW,2013-06-28 23:22:00,
2013-06-28 18:27:00,81.7,60.7,29.63,NNE,30,1.8,2.7,49,0.00,,,0.00,WUHU216HW,2013-06-28 23:27:00,
2013-06-28 18:32:00,81.4,60.3,29.63,ENE,63,2.3,3.8,49,0.00,,,0.00,WUHU216HW,2013-06-28 23:32:00,
2013-06-28 18:37:00,81.2,60.2,29.64,North,0,1.5,3.8,49,0.00,,,0.00,WUHU216HW,2013-06-28 23:37:00,
2013-06-28 18:42:00,81.0,60.0,29.65,WSW,248,5.8,5.8,49,0.00,,,0.00,WUHU216HW,2013-06-28 23:42:00,
2013-06-28 18:47:00,77.9,65.6,29.67,NNW,338,8.1,10.3,66,0.02,,,0.01,WUHU216HW,2013-06-28 23:47:00,
2013-06-28 18:52:00,72.2,64.5,29.67,WSW,248,5.4,10.3,77,0.06,,,0.06,WUHU216HW,2013-06-28 23:52:00,
2013-06-28 18:57:00,70.0,64.3,29.67,North,350,2.3,5.4,82,0.11,,,0.11,WUHU216HW,2013-06-28 23:57:00,
2013-06-28 19:02:00,69.5,63.7,29.66,NNW,343,0.8,3.4,82,0.11,,,0.11,WUHU216HW,2013-06-29 00:02:00,
2013-06-28 19:07:00,69.3,64.3,29.66,North,351,1.5,2.5,84,0.11,,,0.11,WUHU216HW,2013-06-29 00:07:00,
2013-06-28 19:12:00,69.1,64.1,29.67,NNW,344,2.1,3.1,84,0.11,,,0.11,WUHU216HW,2013-06-29 00:12:00,
2013-06-28 19:17:00,69.1,64.4,29.66,North,0,1.1,3.1,85,0.11,,,0.11,WUHU216HW,2013-06-29 00:17:00,
2013-06-28 19:22:00,69.1,64.1,29.66,North,0,2.0,4.0,84,0.11,,,0.11,WUHU216HW,2013-06-29 00:22:00,
2013-06-28 19:27:00,68.9,63.9,29.66,NW,325,1.8,4.0,84,0.11,,,0.11,WUHU216HW,2013-06-29 00:27:00,
2013-06-28 19:32:00,68.9,63.5,29.68,NNW,338,1.5,2.5,83,0.11,,,0.11,WUHU216HW,2013-06-29 00:32:00,
2013-06-28 19:37:00,68.8,63.7,29.68,NNW,338,2.5,2.5,84,0.12,,,0.12,WUHU216HW,2013-06-29 00:37:00,
2013-06-28 19:42:00,68.8,63.7,29.67,NNW,338,0.7,3.4,84,0.12,,,0.12,WUHU216HW,2013-06-29 00:42:00,
2013-06-28 19:47:00,68.6,63.5,29.67,North,0,1.8,3.4,84,0.09,,,0.12,WUHU216HW,2013-06-29 00:47:00,
2013-06-28 19:52:00,68.8,64.4,29.67,NW,315,1.1,1.8,86,0.05,,,0.12,WUHU216HW,2013-06-29 00:52:00,
2013-06-28 19:57:00,68.6,63.5,29.67,North,351,2.0,2.5,84,0.01,,,0.12,WUHU216HW,2013-06-29 00:57:00,
2013-06-28 20:02:00,68.6,63.9,29.67,NNE,23,0.4,2.5,85,0.01,,,0.12,WUHU216HW,2013-06-29 01:02:00,
2013-06-28 20:07:00,68.6,63.5,29.66,West,270,0.4,2.2,84,0.01,,,0.12,WUHU216HW,2013-06-29 01:07:00,
2013-06-28 20:12:00,68.6,63.5,29.66,WNW,283,0.6,1.6,84,0.01,,,0.12,WUHU216HW,2013-06-29 01:12:00,
2013-06-28 20:17:00,68.4,63.4,29.66,North,0,0.4,2.0,84,0.01,,,0.12,WUHU216HW,2013-06-29 01:17:00,
2013-06-28 20:22:00,68.4,63.4,29.66,NW,315,0.2,2.0,84,0.01,,,0.12,WUHU216HW,2013-06-29 01:22:00,
2013-06-28 20:27:00,68.2,63.2,29.66,WNW,293,0.0,0.2,84,0.01,,,0.12,WUHU216HW,2013-06-29 01:27:00,
2013-06-28 20:32:00,68.0,63.0,29.66,WNW,293,0.9,0.9,84,0.00,,,0.12,WUHU216HW,2013-06-29 01:32:00,
2013-06-28 20:37:00,67.9,62.8,29.66,WNW,293,0.0,0.9,84,0.00,,,0.12,WUHU216HW,2013-06-29 01:37:00,
2013-06-28 20:42:00,67.7,62.6,29.66,WNW,293,0.0,0.4,84,0.00,,,0.12,WUHU216HW,2013-06-29 01:42:00,
2013-06-28 20:47:00,67.5,62.5,29.66,WNW,293,0.0,0.0,84,0.00,,,0.12,WUHU216HW,2013-06-29 01:47:00,
2013-06-28 20:52:00,67.5,63.8,29.66,NNW,338,0.4,0.4,88,0.00,,,0.12,WUHU216HW,2013-06-29 01:52:00,
2013-06-28 20:57:00,67.5,63.5,29.66,NNW,338,0.0,0.7,87,0.01,,,0.12,WUHU216HW,2013-06-29 01:57:00,
2013-06-28 21:02:00,67.5,63.2,29.66,NNW,338,1.8,1.8,86,0.01,,,0.13,WUHU216HW,2013-06-29 02:02:00,
2013-06-28 21:07:00,67.5,64.1,29.66,NW,315,0.9,2.0,89,0.02,,,0.14,WUHU216HW,2013-06-29 02:07:00,
2013-06-28 21:12:00,67.5,63.5,29.66,WNW,293,0.4,2.0,87,0.02,,,0.14,WUHU216HW,2013-06-29 02:12:00,
2013-06-28 21:17:00,67.5,63.5,29.66,WNW,293,0.4,0.9,87,0.02,,,0.14,WUHU216HW,2013-06-29 02:17:00,
2013-06-28 21:22:00,67.5,63.5,29.66,West,270,0.0,0.4,87,0.02,,,0.14,WUHU216HW,2013-06-29 02:22:00,
2013-06-28 21:27:00,67.5,63.5,29.66,SE,135,0.0,0.4,87,0.02,,,0.14,WUHU216HW,2013-06-29 02:27:00,
2013-06-28 21:32:00,67.3,63.3,29.66,WNW,293,0.0,0.4,87,0.02,,,0.14,WUHU216HW,2013-06-29 02:32:00,
2013-06-28 21:37:00,67.3,63.3,29.66,NW,315,0.0,0.4,87,0.02,,,0.14,WUHU216HW,2013-06-29 02:37:00,
2013-06-28 21:42:00,67.3,63.3,29.66,NNW,338,0.9,0.9,87,0.02,,,0.14,WUHU216HW,2013-06-29 02:42:00,
2013-06-28 21:47:00,67.3,63.3,29.66,WNW,293,0.4,0.9,87,0.02,,,0.14,WUHU216HW,2013-06-29 02:47:00,
2013-06-28 21:52:00,67.3,63.3,29.66,WNW,293,0.2,0.4,87,0.02,,,0.14,WUHU216HW,2013-06-29 02:52:00,
2013-06-28 21:57:00,67.1,63.5,29.66,WNW,293,0.2,0.2,88,0.01,,,0.14,WUHU216HW,2013-06-29 02:57:00,
2013-06-28 22:02:00,67.1,63.5,29.66,WNW,293,0.0,0.2,88,0.00,,,0.14,WUHU216HW,2013-06-29 03:02:00,
2013-06-28 22:07:00,67.1,63.5,29.66,WNW,293,0.4,0.9,88,0.00,,,0.14,WUHU216HW,2013-06-29 03:07:00,
2013-06-28 22:12:00,67.1,63.5,29.66,West,270,0.0,0.9,88,0.00,,,0.14,WUHU216HW,2013-06-29 03:12:00,
2013-06-28 22:17:00,67.3,63.6,29.66,WNW,293,0.7,1.1,88,0.00,,,0.14,WUHU216HW,2013-06-29 03:17:00,
2013-06-28 22:22:00,67.3,63.6,29.65,SW,225,0.4,1.1,88,0.00,,,0.14,WUHU216HW,2013-06-29 03:22:00,
2013-06-28 22:27:00,67.3,63.6,29.65,SW,225,0.2,0.4,88,0.00,,,0.14,WUHU216HW,2013-06-29 03:27:00,
2013-06-28 22:32:00,67.3,63.6,29.65,NW,315,0.2,0.4,88,0.00,,,0.14,WUHU216HW,2013-06-29 03:32:00,
2013-06-28 22:37:00,67.3,63.6,29.65,WNW,293,0.2,0.4,88,0.00,,,0.14,WUHU216HW,2013-06-29 03:37:00,
2013-06-28 22:42:00,67.3,63.6,29.65,WNW,293,0.2,0.4,88,0.00,,,0.14,WUHU216HW,2013-06-29 03:42:00,
2013-06-28 22:47:00,67.5,63.8,29.65,West,270,0.0,0.2,88,0.00,,,0.14,WUHU216HW,2013-06-29 03:47:00,
2013-06-28 22:52:00,67.5,63.8,29.64,NW,315,0.0,0.0,88,0.00,,,0.14,WUHU216HW,2013-06-29 03:52:00,
2013-06-28 22:57:00,67.5,63.8,29.65,WNW,293,0.0,0.0,88,0.00,,,0.14,WUHU216HW,2013-06-29 03:57:00,
2013-06-28 23:01:00,67.5,63.8,29.65,WNW,293,0.0,0.0,88,0.00,,,0.14,WUHU216HW,2013-06-29 04:01:00,
2013-06-28 23:06:00,67.7,64.0,29.65,North,4,0.6,0.9,88,0.00,,,0.14,WUHU216HW,2013-06-29 04:06:00,
2013-06-28 23:11:00,67.7,64.0,29.64,NW,322,1.0,1.1,88,0.00,,,0.14,WUHU216HW,2013-06-29 04:11:00,
2013-06-28 23:16:00,67.7,64.0,29.64,NNE,23,0.0,1.1,88,0.00,,,0.14,WUHU216HW,2013-06-29 04:16:00,
2013-06-28 23:21:00,67.9,64.2,29.64,North,0,0.0,0.4,88,0.00,,,0.14,WUHU216HW,2013-06-29 04:21:00,
2013-06-28 23:26:00,67.9,63.8,29.64,NW,319,0.3,0.4,87,0.00,,,0.14,WUHU216HW,2013-06-29 04:26:00,
2013-06-28 23:31:00,68.0,64.4,29.64,WNW,293,0.2,0.4,88,0.00,,,0.14,WUHU216HW,2013-06-29 04:31:00,
2013-06-28 23:36:00,67.9,63.8,29.64,NNW,338,2.2,2.2,87,0.00,,,0.14,WUHU216HW,2013-06-29 04:36:00,
2013-06-28 23:41:00,67.9,63.8,29.64,NNW,338,1.1,2.2,87,0.00,,,0.14,WUHU216HW,2013-06-29 04:41:00,
2013-06-28 23:46:00,67.7,63.6,29.64,NW,315,1.0,2.0,87,0.00,,,0.14,WUHU216HW,2013-06-29 04:46:00,
2013-06-28 23:51:00,67.7,63.6,29.64,North,0,0.2,2.0,87,0.00,,,0.14,WUHU216HW,2013-06-29 04:51:00,
2013-06-28 23:56:00,67.5,63.8,29.63,NNW,338,1.8,1.8,88,0.00,,,0.14,WUHU216HW,2013-06-29 04:56:00,